This is the latest recevied weather packets stored in our database for station/object ED5YAL-15. If no packets are shown the sender has not sent any weather packets the latest 10 day(s).
| Time | Temp. | Humidity | Pressure | Rain* | Wind** | Luminosity | Snow |
|---|---|---|---|---|---|---|---|
| 1778089608 | 13.33° C | 55% | 1014.1 hPa | - | - | - | - |
| 1778088707 | 12.78° C | 55% | 1014.2 hPa | - | - | - | - |
| 1778087806 | 12.78° C | 55% | 1014.4 hPa | - | - | - | - |
| 1778086905 | 12.78° C | 54% | 1014.2 hPa | - | - | - | - |
| 1778086007 | 13.33° C | 53% | 1014 hPa | - | - | - | - |
| 1778085104 | 13.33° C | 53% | 1014 hPa | - | - | - | - |
| 1778084203 | 13.89° C | 52% | 1013.6 hPa | - | - | - | - |
| 1778083302 | 13.89° C | 52% | 1013.9 hPa | - | - | - | - |
| 1778082401 | 15.56° C | 51% | 1014.1 hPa | - | - | - | - |
| 1778081501 | 15.56° C | 51% | 1014.3 hPa | - | - | - | - |
| 1778080607 | 16.11° C | 51% | 1014.1 hPa | - | - | - | - |
| 1778079699 | 15.56° C | 51% | 1014.1 hPa | - | - | - | - |
| 1778078798 | 15.56° C | 50% | 1014.2 hPa | - | - | - | - |
| 1778078052 | 16.11° C | 50% | 1014.3 hPa | - | - | - | - |
| 1778077897 | 16.11° C | 50% | 1014.3 hPa | - | - | - | - |
| 1778076996 | 21.11° C | 49% | 1014.2 hPa | - | - | - | - |
| 1778076121 | 21.67° C | 48% | 1014.3 hPa | - | - | - | - |
| 1778075221 | 20.56° C | 48% | 1014.5 hPa | - | - | - | - |
| 1778074320 | 21.67° C | 48% | 1014.5 hPa | - | - | - | - |
| 1778073419 | 20° C | 48% | 1014.6 hPa | - | - | - | - |
| 1778072518 | 20.56° C | 49% | 1014.6 hPa | - | - | - | - |
| 1778071617 | 17.78° C | 49% | 1014.9 hPa | - | - | - | - |
| 1778070716 | 16.67° C | 50% | 1014.8 hPa | - | - | - | - |
| 1778069818 | 16.11° C | 50% | 1015.1 hPa | - | - | - | - |
| 1778068916 | 16.11° C | 50% | 1015.1 hPa | - | - | - | - |
* Rain since midnight (hover to see other rain measurements)
** Current wind speed in m/s (hover to see current wind gust speed)